| time (UTC) | temp F | wind direction | speed MPH | gust MPH | rain 1hr in | rain 24hr in | rain mn in | humidity % | barometer mb |
| 20260905160035 | 61 | 0.0 | 0.0 | 0.00 | 0.45 | 0.44 | 76 | 1010.3 | |
| 20260905154511 | 61 | 0.0 | 0.0 | 0.00 | 0.45 | 0.44 | 78 | 1010.4 | |
| 20260905153007 | 60 | 0.0 | 0.0 | 0.00 | 0.45 | 0.44 | 78 | 1010.6 | |
| 20260905151502 | 60 | 0.0 | 0.0 | 0.00 | 0.45 | 0.44 | 79 | 1010.6 | |
| 20260905150101 | 60 | 0.0 | 0.0 | 0.00 | 0.45 | 0.44 | 82 | 1010.6 | |
| 20260905144555 | 59 | 0.0 | 0.0 | 0.00 | 0.45 | 0.44 | 81 | 1010.5 | |
| 20260905143054 | 60 | 0.0 | 0.0 | 0.00 | 0.45 | 0.44 | 81 | 1010.4 | |
| 20260905141545 | 60 | 0.0 | 0.0 | 0.00 | 0.45 | 0.44 | 81 | 1010.5 | |
| 20260905140041 | 59 | 0.0 | 0.0 | 0.00 | 0.45 | 0.44 | 82 | 1010.3 | |
| 20260905134536 | 58 | 0.0 | 0.0 | 0.00 | 0.45 | 0.44 | 84 | 1010.1 | |
| 20260905133032 | 58 | 0.0 | 0.0 | 0.00 | 0.45 | 0.44 | 86 | 1009.9 | |
| 20260905131541 | 57 | 0.0 | 0.0 | 0.00 | 0.45 | 0.44 | 87 | 1009.9 | |
| 20260905130025 | 57 | 0.0 | 0.0 | 0.00 | 0.45 | 0.44 | 88 | 1010.0 | |
| 20260905124529 | 57 | 0.0 | 0.0 | 0.00 | 0.45 | 0.44 | 89 | 1009.9 | |
| 20260905123016 | 57 | 0.0 | 0.0 | 0.00 | 0.45 | 0.44 | 90 | 1009.8 | |
| 20260905121510 | 56 | 0.0 | 0.0 | 0.01 | 0.45 | 0.44 | 91 | 1009.8 | |
| 20260905120005 | 56 | 0.0 | 0.0 | 0.01 | 0.45 | 0.44 | 91 | 1009.8 | |
| 20260905114502 | 56 | 0.0 | 0.0 | 0.01 | 0.45 | 0.44 | 92 | 1009.7 | |
| 20260905113057 | 55 | 0.0 | 0.0 | 0.01 | 0.45 | 0.44 | 93 | 1009.6 | |
| 20260905111630 | 55 | 0.0 | 0.0 | 0.00 | 0.44 | 0.43 | 94 | 1009.6 | |
| 20260905110053 | 55 | 0.0 | 0.0 | 0.00 | 0.44 | 0.43 | 93 | 1009.5 | |
| 20260905104543 | 55 | 0.0 | 0.0 | 0.00 | 0.44 | 0.43 | 93 | 1009.4 | |
| 20260905103040 | 55 | 0.0 | 0.0 | 0.00 | 0.44 | 0.43 | 93 | 1009.2 | |
| 20260905101542 | 55 | 0.0 | 0.0 | 0.00 | 0.44 | 0.43 | 92 | 1009.0 | |
| 20260905100031 | 55 | 0.0 | 0.0 | 0.00 | 0.44 | 0.43 | 92 | 1009.1 | |
| 20260905094526 | 55 | 0.0 | 0.0 | 0.00 | 0.44 | 0.43 | 92 | 1008.9 | |
| 20260905093022 | 55 | 0.0 | 0.0 | 0.00 | 0.44 | 0.43 | 93 | 1008.8 | |
| 20260905091521 | 55 | 0.0 | 0.0 | 0.00 | 0.44 | 0.43 | 93 | 1008.7 | |
| 20260905090016 | 55 | 0.0 | 0.0 | 0.00 | 0.44 | 0.43 | 93 | 1008.6 | |
| 20260905084509 | 56 | 0.0 | 0.0 | 0.00 | 0.44 | 0.43 | 92 | 1008.6 | |
| 20260905083005 | 56 | 0.0 | 0.0 | 0.00 | 0.44 | 0.43 | 92 | 1008.3 | |
| 20260905081606 | 57 | 0.0 | 0.0 | 0.00 | 0.44 | 0.43 | 94 | 1008.1 | |
| 20260905074551 | 58 | 0.0 | 0.0 | 0.01 | 0.45 | 0.43 | 95 | 1007.7 | |
| 20260905073047 | 58 | 0.0 | 0.0 | 0.06 | 0.45 | 0.43 | 96 | 1007.6 | |
| 20260905071542 | 58 | 0.0 | 0.0 | 0.12 | 0.45 | 0.43 | 96 | 1007.5 | |
| 20260905070039 | 58 | 0.0 | 0.0 | 0.19 | 0.45 | 0.43 | 96 | 1007.4 | |
| 20260905064535 | 58 | 0.0 | 0.0 | 0.21 | 0.43 | 0.41 | 95 | 1007.4 | |
| 20260905063028 | 58 | 0.0 | 0.0 | 0.21 | 0.39 | 0.37 | 95 | 1007.2 | |
| 20260905061524 | 58 | 0.0 | 0.0 | 0.17 | 0.33 | 0.31 | 95 | 1007.2 | |
| 20260905060031 | 58 | 0.0 | 0.0 | 0.11 | 0.25 | 0.23 | 95 | 1007.0 | |
| 20260905054516 | 59 | 0.0 | 0.0 | 0.09 | 0.22 | 0.20 | 94 | 1007.1 | |
| 20260905053026 | 59 | 0.0 | 0.0 | 0.13 | 0.18 | 0.16 | 94 | 1007.1 | |
| 20260905051507 | 59 | 0.0 | 0.0 | 0.14 | 0.16 | 0.14 | 95 | 1006.8 | |
| 20260905050002 | 59 | 0.0 | 0.0 | 0.12 | 0.14 | 0.12 | 94 | 1006.6 | |
| 20260905044604 | 60 | 0.0 | 0.0 | 0.11 | 0.13 | 0.11 | 94 | 1006.6 | |
| 20260905043053 | 60 | 0.0 | 0.0 | 0.03 | 0.05 | 0.03 | 93 | 1006.4 | |
| 20260905041552 | 60 | 0.0 | 0.0 | 0.00 | 0.02 | 0.00 | 92 | 1006.3 | |
| 20260905040044 | 61 | 0.0 | 0.0 | 0.00 | 0.02 | 0.00 | 92 | 1006.2 | |
| 20260905034540 | 60 | 0.0 | 0.0 | 0.00 | 0.02 | 0.02 | 92 | 1006.1 | |
| 20260905033038 | 60 | 0.0 | 0.0 | 0.00 | 0.02 | 0.02 | 93 | 1006.1 | |
| 20260905031532 | 60 | 0.0 | 0.0 | 0.00 | 0.02 | 0.02 | 93 | 1006.3 | |
| 20260905030036 | 60 | 0.0 | 0.0 | 0.00 | 0.02 | 0.02 | 93 | 1006.2 | |
| 20260905024530 | 60 | 0.0 | 0.0 | 0.00 | 0.02 | 0.02 | 93 | 1006.1 | |
| 20260905023019 | 60 | 0.0 | 0.0 | 0.00 | 0.02 | 0.02 | 93 | 1006.1 | |
| 20260905021513 | 60 | 0.0 | 0.0 | 0.00 | 0.02 | 0.02 | 93 | 1006.0 | |
| 20260905020012 | 60 | 0.0 | 0.0 | 0.00 | 0.02 | 0.02 | 93 | 1005.9 | |
| 20260905014505 | 60 | 0.0 | 0.0 | 0.00 | 0.02 | 0.02 | 92 | 1005.9 | |
| 20260905013000 | 60 | 0.0 | 0.0 | 0.00 | 0.02 | 0.02 | 92 | 1005.9 | |
| 20260905011556 | 61 | 0.0 | 0.0 | 0.00 | 0.02 | 0.02 | 92 | 1006.1 | |
| 20260905010058 | 61 | 0.0 | 0.0 | 0.00 | 0.02 | 0.02 | 92 | 1006.0 | |
| 20260905004607 | 61 | 0.0 | 0.0 | 0.00 | 0.02 | 0.02 | 91 | 1006.1 | |
| 20260905004530 | 61 | 0.0 | 0.0 | 0.00 | 0.02 | 0.02 | 91 | 1006.1 | |
| 20260905003043 | 61 | 0.0 | 0.0 | 0.00 | 0.02 | 0.02 | 91 | 1006.0 | |
| 20260905001540 | 62 | 0.0 | 0.0 | 0.00 | 0.02 | 0.02 | 92 | 1006.0 | |
| 20260905000035 | 62 | 0.0 | 0.0 | 0.00 | 0.02 | 0.02 | 92 | 1005.9 | |
| 20260904234530 | 62 | 0.0 | 0.0 | 0.00 | 0.03 | 0.02 | 92 | 1005.9 | |
| 20260904233026 | 62 | 0.0 | 0.0 | 0.00 | 0.03 | 0.02 | 91 | 1005.9 | |
| 20260904231526 | 63 | 0.0 | 0.0 | 0.00 | 0.03 | 0.02 | 91 | 1006.0 | |
| 20260904230017 | 63 | 0.0 | 0.0 | 0.00 | 0.03 | 0.02 | 90 | 1006.0 | |
| 20260904224516 | 63 | 0.0 | 0.0 | 0.00 | 0.06 | 0.02 | 90 | 1006.0 | |
| 20260904223014 | 63 | 0.0 | 0.0 | 0.01 | 0.06 | 0.02 | 89 | 1005.9 | |
| 20260904221503 | 63 | 0.0 | 0.0 | 0.01 | 0.06 | 0.02 | 90 | 1005.8 | |
| 20260904214604 | 64 | 0.0 | 0.0 | 0.01 | 0.09 | 0.02 | 86 | 1006.1 | |
| 20260904213051 | 67 | 0.0 | 0.0 | 0.00 | 0.08 | 0.01 | 81 | 1005.8 | |
| 20260904211546 | 67 | 0.0 | 0.0 | 0.00 | 0.08 | 0.01 | 80 | 1005.6 | |
| 20260904210050 | 68 | 0.0 | 0.0 | 0.00 | 0.08 | 0.01 | 79 | 1005.6 | |
| 20260904204537 | 69 | 0.0 | 0.0 | 0.00 | 0.08 | 0.01 | 80 | 1005.5 | |
| 20260904203033 | 69 | 0.0 | 0.0 | 0.00 | 0.08 | 0.01 | 81 | 1005.5 | |
| 20260904201527 | 67 | 0.0 | 0.0 | 0.00 | 0.08 | 0.01 | 82 | 1005.6 | |
| 20260904200024 | 67 | 0.0 | 0.0 | 0.00 | 0.08 | 0.01 | 81 | 1005.5 | |
| 20260904194531 | 68 | 0.0 | 0.0 | 0.00 | 0.09 | 0.01 | 80 | 1005.6 | |
| 20260904193016 | 69 | 0.0 | 0.0 | 0.00 | 0.09 | 0.01 | 79 | 1005.8 | |
| 20260904191510 | 69 | 0.0 | 0.0 | 0.00 | 0.09 | 0.01 | 78 | 1005.7 | |
| 20260904190006 | 68 | 0.0 | 0.0 | 0.00 | 0.09 | 0.01 | 82 | 1005.8 | |
| 20260904184504 | 68 | 0.0 | 0.0 | 0.00 | 0.09 | 0.01 | 82 | 1005.9 | |
| 20260904183058 | 66 | 0.0 | 0.0 | 0.00 | 0.09 | 0.01 | 85 | 1006.1 | |
| 20260904181555 | 67 | 0.0 | 0.0 | 0.00 | 0.09 | 0.01 | 83 | 1006.2 | |
| 20260904180049 | 66 | 0.0 | 0.0 | 0.00 | 0.09 | 0.01 | 85 | 1006.2 | |
| 20260904174553 | 66 | 0.0 | 0.0 | 0.00 | 0.12 | 0.01 | 85 | 1006.3 | |
| 20260904173041 | 66 | 0.0 | 0.0 | 0.00 | 0.12 | 0.01 | 87 | 1006.4 | |
| 20260904171543 | 66 | 0.0 | 0.0 | 0.00 | 0.12 | 0.01 | 86 | 1006.5 | |
| 20260904170032 | 66 | 0.0 | 0.0 | 0.00 | 0.12 | 0.01 | 85 | 1006.6 | |
| 20260904164527 | 66 | 0.0 | 0.0 | 0.00 | 0.16 | 0.01 | 85 | 1006.6 | |
| 20260904163028 | 66 | 0.0 | 0.0 | 0.00 | 0.16 | 0.01 | 87 | 1006.7 | |
| 20260904161517 | 65 | 0.0 | 0.0 | 0.00 | 0.16 | 0.01 | 86 | 1006.8 |